Tracking 19280 objects as of 15-Nov-2018
HD Live streaming from Space Station
objects crossing your sky now

NOAA 3

Track NOAA 3 now!
10-day predictions
NOAA 3 is classified as:


NORAD ID: 6920
Int'l Code: 1973-086A
Perigee: 1,507.4 km
Apogee: 1,517.1 km
Inclination: 102.0 °
Period: 116.1 minutes
Semi major axis: 7883 km
RCS: 3.3381 m2 (large)
Launch date: November 6, 1973
Source: United States (US)
Launch site: AIR FORCE WESTERN TEST RANGE (AFWTR)
aabbcc
Your satellite tracking list
Your tracking list is empty




NASA's NSSDC Master Catalog

Two Line Element Set (TLE):
1  6920U 73086A   18318.87431012 -.00000024 +00000-0 +15756-3 0  9992
2  6920 102.0177 285.3835 0006141 194.2181 192.3660 12.40346409038303
Source of the keplerian elements: AFSPC